Terug naar catalogus

CZ-2C R/B

ActiefLEO
NORAD 58916·ROCKET BODY·🇨🇳 China

Gelanceerd Feb 2, 2024 vanaf Xichang Satellite Launch Center

Loading…

Volgende Passages (komende 24 uur)

TLE

VersSource: Space-Track

Epoch: Sep 14, 2026, 12:02 UTC

1 58916U 24023M   26257.50180247  .00000221  00000-0  66752-4 0  9994
2 58916  49.8987  54.8010 0094681 249.7395 109.3339 14.71499152140456

Volg CZ-2C R/B in realtime met AllMySat

Download on the App Store